User: anonymous
Location: Caltech
(34.1382°N, 118.1253°W)
Time: 14:36:40
(UTC-07:00)
Language:

Cosmos 676 Rocket - Orbit

View from above orbital plane
View from above orbital plane
View from above satellite
View from above satellite

Ground track
Ground track

The orbit data is extracted from the following two-line orbital elements,

1 07434U 74071B   14294.16413948  .00000455  00000-0  16431-3 0  3449
2 07434 074.0486 195.0902 0021294 342.3515 179.9579 14.36303348 97420
Epoch (UTC): 21 October 2014 03:56:21
Eccentricity: 0.0021294
inclination: 74.0486°
perigee height: 755 km
apogee height: 786 km
right ascension of ascending node: 195.0902°
argument of perigee: 342.3515°
revolutions per day: 14.36303348
mean anomaly at epoch: 179.9579°
orbit number at epoch: 9742

The dashed part of the orbit path shows where the satellite is in the earth's shadow,  

DLR